CO-58
1 28895U 05043F 09154.90342595 .00000004 00000-0 10358-4 0 03214
2 28895 098.0634 045.8914 0018597 032.9991 327.2373 14.59771502191793
FALCON
1 30776U 07006E 09154.48350213 .00000166 00000-0 15033-4 0 05895
2 30776 035.4328 182.5531 0000563 209.2693 150.7991 15.03248335123035
MAST
1 31126U 07012K 09154.88598693 -.00000011 00000-0 82653-5 0 06111
2 31126 097.9927 210.3011 0093728 321.8125 037.6438 14.53497927113105
CAPE1
1 31130U 07012P 09154.63605150 .00000001 00000-0 11209-4 0 06178
2 31130 097.9927 208.2769 0101678 328.0461 031.4581 14.52059977112728
COMPASS
1 32787U 08021E 09155.20267109 .00000174 00000-0 28850-4 0 3730
2 32787 097.9422 219.1358 0017086 075.5641 284.7463 14.81606827 59529
AAUSAT2
1 32788U 08021F 09154.63138611 .00000390 00000-0 56117-4 0 03751
2 32788 097.9416 218.6245 0016811 077.2912 283.0183 14.81731005059446
DO-64
1 32789U 08021G 09153.70747479 .00000284 00000-0 42794-4 0 03845
2 32789 097.9481 217.8620 0016966 079.2494 281.0612 14.81710757059306
CO-66
1 32791U 08021J 09154.36595056 .00000261 00000-0 40054-4 0 03722
2 32791 097.9459 218.3401 0017360 075.1722 285.1405 14.81437747059361
RS-30
1 32953U 08025A 09154.74798581 .00000010 00000-0 00000 0 0 3203
2 32953 082.5014 264.9669 0018741 204.5807 155.4384 12.43001397 46722
TACSAT-3
1 35001U 09028A 09155.36137863 .00001911 00000-0 54291-4 0 184
2 35001 040.4571 317.3476 0024324 063.2103 297.1199 15.38783122 2373
PHARMSAT
1 35002U 09028B 09153.86167682 .00001681 00000-0 47252-4 0 00239
2 35002 040.4705 326.2242 0027074 056.5765 303.7632 15.39553607002131
HAWKSAT1
1 35003U 09028C 09153.85923822 .00002609 00000-0 69378-4 0 183
2 35003 040.4717 326.2150 0026816 063.7691 296.5880 15.39829972 2140
CP6
1 35004U 09028D 09153.85831797 .00003168 00000-0 82504-4 0 00180
2 35004 040.4631 326.1835 0028478 058.7032 301.6568 15.39948102002131
AEROCUB3
1 35005U 09028E 09155.22208032 .00003336 00000-0 87217-4 0 132
2 35005 040.4765 318.0744 0026648 069.8217 290.5457 15.39768439 2343
